Regional Weather Roundup
Issued by NWS

Home | Current Version | Previous Version | Graphics & Text | Print | Product List | Glossary On
Versions: 1 2 3 4 5 6 7 8 9 10 11 12 13 14 15 16 17 18 19 20 21 22 23 24 25 26 27 28 29 30 31 32 33 34 35 36 37 38 39 40 41 42 43 44 45 46 47 48 49 50
000
ASUS43 KLOT 231912
RWRIL

ILLINOIS REGIONAL WEATHER ROUNDUP
NATIONAL WEATHER SERVICE CHICAGO/ROMEOVILLE IL
100 PM CST MON JAN 23 2017

NOTE: "FAIR" INDICATES FEW OR NO CLOUDS BELOW 12,000 FEET WITH NO
SIGNIFICANT WEATHER AND/OR OBSTRUCTIONS TO VISIBILITY.

* THESE STATIONS ARE NOT UNDER NWS QUALITY CONTROL. THEY ALSO MAY NOT
  REPORT WEATHER SUCH AS PRECIPITATION OR FOG.

ILZ001-002-007-009-015-016-024-232000-
NORTHWEST ILLINOIS

CITY           SKY/WX    TMP DP  RH WIND       PRES   REMARKS
MOLINE         CLOUDY    41  35  79 W12       29.81F
STERLING*      CLOUDY    41  37  86 NW12      29.80S
SAVANNA*       CLOUDY    39  35  84 NW6       29.81S WCI  35
$$

ILZ003-004-008-010-011-017-018-232000-
NORTH CENTRAL ILLINOIS

CITY           SKY/WX    TMP DP  RH WIND       PRES   REMARKS
ROCKFORD       CLOUDY    43  35  73 N10       29.78F
FREEPORT*      CLOUDY    40  35  84 NW7       29.79F
ROCHELLE*      CLOUDY    40  36  87 N8        29.78S
DE KALB*       CLOUDY    40  37  88 N12       29.76F
PERU*          CLOUDY    39  34  81 N10       29.79S WCI  33
$$

ILZ005-006-012>014-019>023-232000-
NORTHEAST ILLINOIS

CITY           SKY/WX    TMP DP  RH WIND       PRES   REMARKS
CHICAGO-OHARE  CLOUDY    41  36  82 N9        29.74F
CHICAGO-MIDWAY CLOUDY    42  33  70 N12G22    29.74F
AURORA         CLOUDY    42  35  76 N12       29.75F
LANSING*       CLOUDY    39  37  91 N9        29.74F WCI  33
JOLIET*        CLOUDY    42  37  83 N6        29.75F
WAUKEGAN       CLOUDY    41  37  86 NW6       29.74F
DUPAGE AIRPORT CLOUDY    41  35  79 N13       29.74F
KANKAKEE*      CLOUDY    39  35  84 N9        29.74F WCI  33
WHEELING       CLOUDY    40  35  83 N8        29.75F
MORRIS*        CLOUDY    40  36  84 N6        29.74F
ROMEOVILLE*    CLOUDY    40  38  90 N5        29.74F
NORTHERLY ISL    N/A     37  35  92 N13         N/A  WCI  29
$$

LMZ740>746-232000-
SOUTHERN LAKE MICHIGAN

STATION/POSITION SKY/WX   TEMP    WIND        PRES    VSBY  WAVE
                          AIR SEA DIR/SP/G                  HT/PER
                          (F)     (DEG/KT/KT) (MB)    (MI)  (FT/S)
HARRISON CRIB              37     350/ 11/ 12   N/A
BURNHAM HARBOR             38     350/  8/ 11   N/A
CALUMET HARBOR             38     340/ 10/ 13 1007.0F
BURNS HARBOR               36     320/  7/  9 1007.8F
MICHIGAN CITY              37     330/ 10/ 11   N/A
$$

ILZ025>027-034>036-040-047-049-050-058-095>099-232000-
WEST-CENTRAL ILLINOIS

CITY           SKY/WX    TMP DP  RH WIND       PRES   REMARKS
QUINCY         CLOUDY    39  33  79 NW8       29.84F WCI  33
GALESBURG*     CLOUDY    39  36  89 NW10        N/A  WCI  32
MACOMB*        CLOUDY    40  37  87 NW12      29.85F
JACKSONVILLE*  CLOUDY    41  35  79 NW10      29.82F
PITTSFIELD*    CLOUDY    41  35  79 NW9       29.84F
$$

ILZ028>032-037-038-041>044-048-051>054-059>061-232000-
CENTRAL ILLINOIS

CITY           SKY/WX    TMP DP  RH WIND       PRES   REMARKS
PONTIAC        CLOUDY    41  38  91 N10       29.77S
BLOOMINGTON    CLOUDY    39  35  86 NW14      29.78R WCI  31
DECATUR        CLOUDY    41  36  82 N10       29.77S
PEORIA         CLOUDY    43  35  73 W10       29.80F
LACON*         CLOUDY    40  36  84 NW8       29.79R
LINCOLN*       CLOUDY    43  38  82 NW7       29.78F
SPRINGFIELD    CLOUDY    44  36  73 NW12      29.80F
TAYLORVILLE    CLOUDY    40  36  84 NW13G18   29.80F
$$

ILZ033-039-045-046-055>057-062-063-232000-
EAST-CENTRAL ILLINOIS

CITY           SKY/WX    TMP DP  RH WIND       PRES   REMARKS
CHAMPAIGN      CLOUDY    40  34  79 N15       29.75R
RANTOUL*       CLOUDY    41  37  86 N13G20    29.74S
MATTOON        CLOUDY    39  36  89 N16       29.75R WCI  30
PARIS*         CLOUDY    40  37  90 N9G16     29.72F
$$

ILZ079-100>102-232000-
SOUTHWEST ILLINOIS

CITY           SKY/WX    TMP DP  RH WIND       PRES   REMARKS
ALTON          CLOUDY    41  34  75 NW12G20   29.81F
BELLEVILLE     CLOUDY    42  36  79 NW14      29.80F
CAHOKIA*       CLOUDY    44  34  67 NW16      29.82F
SPARTA*        CLOUDY    41  34  76 NW13      29.81F
$$

ILZ064>066-069>071-074>076-080>082-084>086-088>090-092>094-232000-
SOUTH-CENTRAL ILLINOIS

CITY           SKY/WX    TMP DP  RH WIND       PRES   REMARKS
CARBONDALE     CLOUDY    42  37  82 NW18G24   29.79F
CAIRO*         CLOUDY    45  37  76 NW17      29.77F
EFFINGHAM*     CLOUDY    41  38  89 NW14      29.78F
MARION         CLOUDY    43  37  81 NW9G20    29.78F
MT. VERNON     CLOUDY    41  35  79 VRB5      29.77F
CENTRALIA*     CLOUDY    42  37  83 N12       29.77F
SALEM*         CLOUDY    42  36  79 NW15      29.77F
METROPOLIS*    CLOUDY    44  37  73 N12       29.77F
$$

ILZ067-068-072-073-078-083-087-091-232000-
SOUTHEAST ILLINOIS

CITY           SKY/WX    TMP DP  RH WIND       PRES   REMARKS
LAWRENCEVILLE  CLOUDY    43  38  82 NW20      29.72S
FLORA*         CLOUDY    42  37  83 NW16      29.76F
FAIRFIELD*     CLOUDY    41  37  84 N6        29.75F
HARRISBURG*    CLOUDY    42  37  81 NW9       29.76F
ROBINSON*      CLOUDY    40  36  86 N15G23    29.72F
CARMI*         CLOUDY    42  37  83 NW17      29.74F
$$

ABBREVIATIONS USED IN REMARKS
   TC - TEMPERATURE IN CELSIUS
  WCI - WIND CHILL INDEX
   HX - HEAT INDEX
  VSB - VISIBILITY
$$




USA.gov is the U.S. government's official web portal to all federal, state and local government web resources and services.